Date String (YYYY-MM-DD hh:mm:ss) UTC,Instrument flags,absolute air pressure of the measurement (hPa),sample flow rate (lpm),inlet stack bypass flow (lpm),air temperature of the measurement (°C),ambient temperature measured by the external sensor (°C),aerosol sample conditioner tube jacket temperature (°C),OPC LED temperature (°C),internal box temperature (°C),relative humidity of the measurement (%),span deviation,mass concentration of particles derived from Lorenz-Mie calculation of OPC scattering (μg/m³),mass concentration of particles derived from Lorenz-Mie calculation of OPC scattering (μg/m³),mass concentration of particles derived from Lorenz-Mie calculation of OPC scattering (μg/m³)
DateTimeUTC,F1_M11,P_M11,Q1_M11,Q2_M11,T1_M11,T2_M11,T3_M11,T4_M11,T5_M11,U1_M11,ZSPAN_M11,X0_M11,X2_M11,X1_M11
2024-04-18 13:00:00,SystemResetWarning,0834.0,5.01,000.00,021.6,020.8,000.0,030.3,023.5,019.5,0000.0,0007.10,0003.67,0002.96
2024-04-18 13:01:00,SystemResetWarning,0833.9,5.00,000.00,021.6,020.8,000.0,030.3,023.5,019.6,0000.0,0006.45,0003.69,0002.99
2024-04-18 13:02:00,SystemResetWarning,0833.9,4.99,000.00,021.6,020.8,000.0,030.3,023.5,019.6,0000.0,0006.52,0003.69,0003.00
2024-04-18 13:03:00,SystemResetWarning,0833.9,4.99,000.00,021.6,020.8,000.0,030.3,023.4,019.6,0000.0,0006.58,0003.70,0003.00
2024-04-18 13:04:00,SystemResetWarning,0834.0,5.00,000.00,021.6,020.8,000.0,030.3,023.4,019.6,0000.0,0006.55,0003.67,0002.98
2024-04-18 13:05:00,SystemResetWarning,0834.0,5.01,000.00,021.6,020.7,000.0,030.2,023.4,019.5,0000.0,0006.59,0003.66,0002.99
2024-04-18 13:06:00,SystemResetWarning,0834.0,5.00,000.00,021.6,020.7,000.0,030.2,023.4,019.5,0000.0,0006.68,0003.66,0003.00
2024-04-18 13:07:00,SystemResetWarning,0834.1,5.00,000.00,021.6,020.7,000.0,030.2,023.4,019.5,0000.0,0006.73,0003.66,0003.01
2024-04-18 13:08:00,SystemResetWarning,0834.0,5.00,000.00,021.5,020.8,000.0,030.2,023.4,019.6,0000.0,0006.87,0003.70,0003.05
2024-04-18 13:09:00,SystemResetWarning,0834.0,5.00,000.00,021.5,020.8,000.0,030.2,023.4,019.6,0000.0,0007.18,0003.71,0003.07
2024-04-18 13:10:00,SystemResetWarning,0834.0,5.00,000.00,021.5,020.7,000.0,030.2,023.4,019.7,0000.0,0007.28,0003.74,0003.09
2024-04-18 13:11:00,SystemResetWarning,0834.0,5.00,000.00,021.5,020.7,000.0,030.2,023.4,019.7,0000.0,0007.34,0003.78,0003.10
2024-04-18 13:12:00,SystemResetWarning,0834.0,5.00,000.00,021.5,020.7,000.0,030.2,023.4,019.7,0000.0,0007.27,0003.76,0003.10
2024-04-18 13:13:00,SystemResetWarning,0833.9,5.00,000.00,021.5,020.7,000.0,030.2,023.4,019.8,0000.0,0007.27,0003.76,0003.10
2024-04-18 13:14:00,SystemResetWarning,0834.0,5.00,000.00,021.5,020.7,000.0,030.2,023.4,019.7,0000.0,0007.35,0003.80,0003.11
2024-04-18 13:15:00,SystemResetWarning,0834.1,5.00,000.00,021.5,020.7,000.0,030.2,023.4,019.7,0000.0,0007.37,0003.83,0003.12
2024-04-18 13:16:00,SystemResetWarning,0834.1,4.99,000.00,021.5,020.7,000.0,030.2,023.4,019.7,0000.0,0007.28,0003.83,0003.12
2024-04-18 13:17:00,SystemResetWarning,0834.1,4.99,000.00,021.5,020.7,000.0,030.2,023.3,019.7,0000.0,0007.42,0003.86,0003.13
2024-04-18 13:18:00,SystemResetWarning,0834.2,5.00,000.00,021.5,020.7,000.0,030.2,023.3,019.6,0000.0,0007.58,0003.91,0003.13
2024-04-18 13:19:00,SystemResetWarning,0834.3,5.00,000.00,021.5,020.7,000.0,030.2,023.4,019.7,0000.0,0007.69,0003.95,0003.14
2024-04-18 13:20:00,SystemResetWarning,0834.3,5.01,000.00,021.5,020.7,000.0,030.2,023.4,019.7,0000.0,0007.67,0003.99,0003.14
2024-04-18 13:21:00,SystemResetWarning,0834.2,5.00,000.00,021.5,020.7,000.0,030.1,023.4,019.7,0000.0,0007.55,0003.97,0003.13
2024-04-18 13:22:00,SystemResetWarning,0834.2,5.00,000.00,021.5,020.7,000.0,030.1,023.3,019.8,0000.0,0007.68,0003.95,0003.13
2024-04-18 13:23:00,SystemResetWarning,0834.2,5.00,000.00,021.5,020.7,000.0,030.1,023.3,019.8,0000.0,0008.18,0003.96,0003.13
2024-04-18 13:24:00,SystemResetWarning,0834.3,5.00,000.00,021.5,020.7,000.0,030.1,023.4,019.9,0000.0,0008.24,0003.98,0003.13
2024-04-18 13:25:00,SystemResetWarning,0834.3,5.00,000.00,021.5,020.7,000.0,030.1,023.3,019.9,0000.0,0008.15,0003.94,0003.12
2024-04-18 13:26:00,SystemResetWarning,0834.4,5.00,000.00,021.5,020.7,000.0,030.1,023.4,019.9,0000.0,0008.14,0003.93,0003.12
2024-04-18 13:27:00,SystemResetWarning,0834.2,5.00,000.00,021.5,020.7,000.0,030.1,023.3,019.8,0000.0,0008.09,0003.91,0003.12
2024-04-18 13:28:00,SystemResetWarning,0834.2,5.00,000.00,021.5,020.7,000.0,030.1,023.3,019.7,0000.0,0007.81,0003.83,0003.11
2024-04-18 13:29:00,SystemResetWarning,0834.2,4.99,000.00,021.5,020.7,000.0,030.1,023.4,019.7,0000.0,0007.65,0003.78,0003.11
2024-04-18 13:30:00,SystemResetWarning,0834.2,4.99,000.00,021.5,020.7,000.0,030.1,023.3,019.7,0000.0,0007.61,0003.75,0003.11
2024-04-18 13:31:00,SystemResetWarning,0834.3,5.01,000.00,021.5,020.7,000.0,030.1,023.3,019.7,0000.0,0007.60,0003.75,0003.11
2024-04-18 13:32:00,SystemResetWarning,0834.1,5.01,000.00,021.5,020.7,000.0,030.1,023.3,019.7,0000.0,0007.62,0003.76,0003.11
2024-04-18 13:33:00,SystemResetWarning,0834.1,5.00,000.00,021.4,020.7,000.0,030.1,023.3,019.7,0000.0,0007.58,0003.81,0003.12
2024-04-18 13:34:00,SystemResetWarning,0834.1,4.99,000.00,021.4,020.7,000.0,030.1,023.3,019.7,0000.0,0006.99,0003.81,0003.13
2024-04-18 13:35:00,SystemResetWarning,0834.1,5.00,000.00,021.4,020.7,000.0,030.1,023.3,019.7,0000.0,0006.96,0003.79,0003.14
2024-04-18 13:36:00,SystemResetWarning,0834.1,5.00,000.00,021.4,020.7,000.0,030.1,023.3,019.7,0000.0,0007.44,0003.82,0003.15
2024-04-18 13:37:00,SystemResetWarning,0834.3,5.00,000.00,021.4,020.7,000.0,030.1,023.3,019.8,0000.0,0007.52,0003.86,0003.16
2024-04-18 13:38:00,SystemResetWarning,0834.6,5.02,000.00,021.4,020.7,000.0,030.1,023.3,019.8,0000.0,0007.54,0003.88,0003.16
2024-04-18 13:39:00,SystemResetWarning,0834.5,4.99,000.00,021.4,020.7,000.0,030.1,023.3,019.9,0000.0,0007.58,0003.90,0003.16
2024-04-18 13:40:00,SystemResetWarning,0834.3,5.00,000.00,021.4,020.7,000.0,030.1,023.3,019.9,0000.0,0007.51,0003.89,0003.17
2024-04-18 13:41:00,SystemResetWarning,0834.3,4.99,000.00,021.4,020.7,000.0,030.1,023.3,019.8,0000.0,0007.52,0003.89,0003.17
2024-04-18 13:42:00,SystemResetWarning,0834.3,5.00,000.00,021.4,020.8,000.0,030.1,023.3,019.8,0000.0,0007.42,0003.85,0003.18
2024-04-18 13:43:00,SystemResetWarning,0834.3,5.01,000.00,021.4,020.8,000.0,030.1,023.3,019.8,0000.0,0007.38,0003.85,0003.18
2024-04-18 13:44:00,SystemResetWarning,0834.5,5.00,000.00,021.4,020.8,000.0,030.1,023.3,019.9,0000.0,0007.36,0003.84,0003.18
2024-04-18 13:45:00,SystemResetWarning,0834.4,5.00,000.00,021.4,020.8,000.0,030.1,023.3,019.9,0000.0,0007.32,0003.82,0003.18
2024-04-18 13:46:00,SystemResetWarning,0834.3,5.00,000.00,021.4,020.8,000.0,030.0,023.3,019.8,0000.0,0007.31,0003.83,0003.19
2024-04-18 13:47:00,SystemResetWarning,0834.4,4.99,000.00,021.4,020.8,000.0,030.1,023.3,019.8,0000.0,0006.72,0003.84,0003.21
2024-04-18 13:48:00,SystemResetWarning,0834.4,5.00,000.00,021.4,020.8,000.0,030.0,023.3,019.8,0000.0,0006.54,0003.80,0003.21
2024-04-18 13:49:00,SystemResetWarning,0834.5,5.00,000.00,021.4,020.8,000.0,030.0,023.3,019.7,0000.0,0006.99,0003.80,0003.23
2024-04-18 13:50:00,SystemResetWarning,0834.5,5.00,000.00,021.4,020.8,000.0,030.0,023.3,019.7,0000.0,0007.08,0003.81,0003.24
2024-04-18 13:51:00,SystemResetWarning,0834.5,5.00,000.00,021.4,020.8,000.0,030.0,023.3,019.6,0000.0,0007.20,0003.84,0003.25
2024-04-18 13:52:00,SystemResetWarning,0834.4,5.00,000.00,021.4,020.8,000.0,030.0,023.3,019.7,0000.0,0007.07,0003.83,0003.26
2024-04-18 13:53:00,SystemResetWarning,0834.4,5.00,000.00,021.4,020.8,000.0,030.0,023.3,019.8,0000.0,0007.16,0003.86,0003.27
2024-04-18 13:54:00,SystemResetWarning,0834.4,5.00,000.00,021.4,020.8,000.0,030.0,023.3,019.7,0000.0,0007.29,0003.88,0003.28
2024-04-18 13:55:00,SystemResetWarning,0834.4,5.01,000.00,021.4,020.8,000.0,030.0,023.3,019.7,0000.0,0007.08,0003.85,0003.29
2024-04-18 13:56:00,SystemResetWarning,0834.4,5.00,000.00,021.4,020.8,000.0,030.0,023.3,019.7,0000.0,0007.05,0003.87,0003.31
2024-04-18 13:57:00,SystemResetWarning,0834.4,4.99,000.00,021.4,020.8,000.0,030.0,023.3,019.7,0000.0,0006.93,0003.85,0003.31
2024-04-18 13:58:00,SystemResetWarning,0834.5,4.98,000.00,021.4,020.8,000.0,030.0,023.3,019.7,0000.0,0006.76,0003.81,0003.30
2024-04-18 13:59:00,SystemResetWarning,0834.5,5.00,000.00,021.4,020.8,000.0,030.0,023.3,019.8,0000.0,0006.65,0003.79,0003.30
